TimeAKDT,TemperatureF,Dew PointF,Humidity,Sea Level PressureIn,VisibilityMPH,Wind Direction,Wind SpeedMPH,Gust SpeedMPH,PrecipitationIn,Events,Conditions,WindDirDegrees,DateUTC
12:53 AM,14.0,12.9,95,29.58,10.0,NE,4.6,-,0.00,,Overcast,40,2013-10-31 08:53:00
1:53 AM,15.1,14.0,95,29.59,10.0,ENE,5.8,-,0.00,,Overcast,60,2013-10-31 09:53:00
2:53 AM,15.1,14.0,95,29.60,9.0,ENE,6.9,-,0.00,,Overcast,60,2013-10-31 10:53:00
3:53 AM,15.1,14.0,95,29.60,10.0,ENE,6.9,-,0.00,,Overcast,60,2013-10-31 11:53:00
4:53 AM,15.1,14.0,95,29.61,10.0,East,5.8,-,0.00,,Overcast,90,2013-10-31 12:53:00
5:51 AM,15.8,12.2,86,29.61,5.0,East,8.1,-,0.00,Snow,Light Snow,80,2013-10-31 13:51:00
5:53 AM,15.1,12.9,91,29.62,5.0,ENE,6.9,-,0.00,Snow,Light Snow,70,2013-10-31 13:53:00
6:29 AM,14.0,12.2,93,29.62,9.0,ENE,4.6,-,0.00,,Overcast,70,2013-10-31 14:29:00
6:53 AM,14.0,12.9,95,29.63,10.0,ENE,4.6,-,0.00,,Overcast,60,2013-10-31 14:53:00
7:42 AM,12.2,12.2,100,29.63,10.0,ENE,4.6,-,0.00,,Overcast,60,2013-10-31 15:42:00
7:51 AM,14.0,12.2,93,29.63,10.0,ENE,4.6,-,0.00,,Overcast,70,2013-10-31 15:51:00
7:53 AM,14.0,12.0,92,29.64,10.0,ENE,4.6,-,0.00,,Overcast,70,2013-10-31 15:53:00
8:21 AM,14.0,12.2,93,29.64,10.0,Calm,Calm,-,0.00,,Overcast,0,2013-10-31 16:21:00
8:53 AM,14.0,12.9,95,29.65,5.0,ENE,3.5,-,0.00,Snow,Light Snow,70,2013-10-31 16:53:00
9:01 AM,14.0,12.2,93,29.64,5.0,ENE,3.5,-,0.00,Snow,Light Snow,60,2013-10-31 17:01:00
9:53 AM,14.0,12.9,95,29.65,10.0,East,3.5,-,0.00,,Overcast,90,2013-10-31 17:53:00
10:02 AM,14.0,12.2,93,29.65,10.0,East,4.6,-,0.00,,Overcast,80,2013-10-31 18:02:00
10:39 AM,14.0,12.2,93,29.66,10.0,Calm,Calm,-,0.00,,Overcast,0,2013-10-31 18:39:00
10:53 AM,14.0,12.0,92,29.67,10.0,East,3.5,-,0.00,,Overcast,80,2013-10-31 18:53:00
11:01 AM,14.0,12.2,93,29.66,10.0,Calm,Calm,-,0.00,,Overcast,0,2013-10-31 19:01:00
11:12 AM,14.0,12.2,93,29.67,10.0,Calm,Calm,-,0.00,,Overcast,0,2013-10-31 19:12:00
11:53 AM,15.1,15.1,100,29.68,10.0,Calm,Calm,-,0.00,,Overcast,0,2013-10-31 19:53:00
12:53 PM,15.1,15.1,100,29.70,9.0,South,5.8,-,0.00,,Overcast,170,2013-10-31 20:53:00
1:31 PM,14.0,14.0,100,29.70,10.0,South,3.5,-,0.00,,Overcast,170,2013-10-31 21:31:00
1:53 PM,14.0,12.9,95,29.72,10.0,South,3.5,-,0.00,,Overcast,180,2013-10-31 21:53:00
2:19 PM,15.8,14.0,93,29.72,10.0,South,4.6,-,0.00,,Overcast,170,2013-10-31 22:19:00
2:27 PM,15.8,15.8,100,29.72,5.0,South,3.5,-,0.00,,Overcast,180,2013-10-31 22:27:00
2:30 PM,15.8,15.8,100,29.72,2.0,South,4.6,-,0.00,,Overcast,180,2013-10-31 22:30:00
2:37 PM,15.8,15.8,100,29.72,0.8,South,5.8,-,0.00,,Overcast,180,2013-10-31 22:37:00
2:53 PM,15.1,15.1,100,29.73,0.5,South,4.6,-,0.00,Fog-Snow,Light Snow,180,2013-10-31 22:53:00
3:33 PM,15.8,15.8,100,29.73,1.2,South,5.8,-,0.00,,Overcast,170,2013-10-31 23:33:00
3:51 PM,15.8,15.8,100,29.73,0.8,South,5.8,-,0.00,,Mist,180,2013-10-31 23:51:00
3:53 PM,16.0,15.1,96,29.74,0.8,South,6.9,-,0.00,,Mist,170,2013-10-31 23:53:00
4:12 PM,15.8,15.8,100,29.74,0.5,South,6.9,-,0.00,Fog-Rain,Light Freezing Rain,180,2013-11-01 00:12:00
4:51 PM,15.8,15.8,100,29.74,0.5,South,8.1,-,0.00,Fog-Rain,Light Freezing Rain,170,2013-11-01 00:51:00
4:53 PM,15.1,15.1,100,29.75,0.5,South,6.9,-,0.00,Fog-Rain,Light Freezing Rain,170,2013-11-01 00:53:00
5:51 PM,12.2,12.2,100,29.75,0.8,South,8.1,-,0.00,Snow,Light Snow,180,2013-11-01 01:51:00
5:53 PM,12.9,12.9,100,29.76,0.8,South,8.1,-,0.00,Snow,Light Snow,180,2013-11-01 01:53:00
6:01 PM,12.2,12.2,100,29.75,1.8,South,9.2,-,0.00,Snow,Light Snow,180,2013-11-01 02:01:00
6:03 PM,12.2,12.2,100,29.76,3.0,South,8.1,-,0.00,Snow,Light Snow,180,2013-11-01 02:03:00
6:53 PM,12.0,10.9,95,29.77,5.0,South,6.9,-,0.00,Snow,Light Snow,170,2013-11-01 02:53:00
7:23 PM,12.2,10.4,92,29.77,10.0,South,6.9,-,0.00,,Overcast,170,2013-11-01 03:23:00
7:53 PM,12.0,10.9,95,29.79,9.0,South,4.6,-,0.00,Snow,Light Snow,170,2013-11-01 03:53:00
8:29 PM,12.2,10.4,92,29.79,6.0,South,8.1,-,0.00,Snow,Light Snow,170,2013-11-01 04:29:00
8:51 PM,10.4,10.4,100,29.79,10.0,South,8.1,-,0.00,,Overcast,170,2013-11-01 04:51:00
8:53 PM,10.9,10.0,96,29.79,10.0,South,8.1,-,0.00,,Overcast,170,2013-11-01 04:53:00
9:06 PM,12.2,10.4,92,29.79,10.0,South,5.8,-,0.00,,Overcast,170,2013-11-01 05:06:00
9:39 PM,10.4,10.4,100,29.80,10.0,South,6.9,-,0.00,,Overcast,180,2013-11-01 05:39:00
9:53 PM,10.9,10.0,96,29.81,10.0,South,6.9,-,0.00,,Overcast,180,2013-11-01 05:53:00
10:53 PM,10.9,10.0,96,29.83,10.0,South,5.8,-,N/A,,Overcast,180,2013-11-01 06:53:00
11:48 PM,10.4,10.4,100,29.83,10.0,South,5.8,-,0.00,,Overcast,180,2013-11-01 07:48:00
11:53 PM,10.9,10.0,96,29.84,10.0,South,6.9,-,0.00,,Overcast,170,2013-11-01 07:53:00